Location: Riverton
(43.0250°N, 108.3790°W)
Time: 14:01:26
(UTC-06:00)

FO-29 - Visible Passes

Search period start: 23 June 2018 00:00
Search period end: 03 July 2018 00:00
Orbit: 799 x 1322 km, 98.5° (Epoch: 22 June)

Date Brightness Start Highest point End Pass type
(mag) Time Alt. Az. Time Alt. Az. Time Alt. Az.
24 Jun 12.2 21:58:35 10° NNW 22:01:45 16° WNW 22:05:03 10° W visible
26 Jun 12.2 21:53:15 10° NNW 21:56:45 18° WNW 22:00:26 10° WSW visible
28 Jun 12.2 21:47:57 10° NNW 21:51:45 19° WNW 21:55:47 10° WSW visible
30 Jun 12.2 21:42:41 10° NNW 21:46:45 21° WNW 21:51:07 10° WSW visible
02 Jul 12.1 21:37:26 10° NNW 21:41:46 23° WNW 21:46:27 10° WSW visible
